Regional Weather Roundup
Issued by NWS Sterling, VA

Home | Current Version | Previous Version | Graphics & Text | Print | Product List | Glossary On
Versions: 1 2 3 4 5 6 7 8 9 10 11 12 13 14 15 16 17 18 19 20 21 22 23 24 25 26 27 28 29 30 31 32 33 34 35 36 37 38 39 40 41 42 43 44 45 46 47 48 49 50
476
ASUS41 KLWX 101710
RWRLWX

REGIONAL WEATHER ROUNDUP
NATIONAL WEATHER SERVICE BALTIMORE MD/WASHINGTON DC
1200 PM EST WED FEB 10 2016

Note: "FAIR" indicates few or no clouds below 12,000 feet
with no significant weather and/or obstructions to visibility.
 TC=TEMPERATURE CELSIUS

 * =Non NWS site. Station does not report precipitation (e.g. rain,
    snow, etc.), thunder, or fog.

DCZ001-MDZ009-015-VAZ040>042-051-053>054-101800-
WASHINGTON METRO

CITY           SKY/WX    TMP DP  RH WIND       PRES   REMARKS
WASHINGTON NAT FAIR      37  16  42 W16G22    29.81F WCI  28
DULLES         PTSUNNY   35  16  45 NW20G25   29.79F WCI  24
ANDREWS AFB    PTSUNNY   34  16  47 W18G24    29.77F WCI  23
FT BELVOIR     FAIR      37  15  40 NW10G21   29.80F
QUANTICO       FAIR      39  18  42 NW12      29.82F
COLLEGE PARK*  FAIR      36  18  48 W13G20    29.79F WCI  27
LEESBURG*      FAIR      34  23  64 NW13G21   29.80F WCI  25
MANASSAS*      MOSUNNY   36  19  51 NW12      29.80F WCI  27
GAITHERSBURG*  CLOUDY    30  16  55 W12G21    29.82F WCI  21

$$

MDZ006>007-011-014-101800-
BALTIMORE METRO

CITY           SKY/WX    TMP DP  RH WIND       PRES   REMARKS
BWI AIRPORT    PTSUNNY   33  18  53 W18G25    29.79S WCI  22
MD SCIENCE CTR   N/A     33  16  49 MISG      29.78F
ANNAPOLIS      PTSUNNY   34  18  52 NW14G25   29.79F WCI  25
FORT MEADE*    PTSUNNY   34  19  55 W14G24    29.82S WCI  24

$$

MDZ012-015-019>023-101800-
MARYLAND EASTERN SHORE

CITY           SKY/WX    TMP DP  RH WIND       PRES   REMARKS
OCEAN CITY     CLOUDY    34  22  61 NW9       29.78S WCI  27
SALISBURY      CLOUDY    34  21  59 NW14      29.78F WCI  25
BAY BRIDGE AP*   N/A     36  21  55 W16G23    29.79F WCI  26
CAMBRIDGE*     PTSUNNY   34  21  60 NW10G18   29.79F WCI  26
EASTON*        PTSUNNY   36  21  55 NW9G18    29.82F WCI  29

$$

MDZ017>025-101800-
SOUTHERN MARYLAND

CITY           SKY/WX    TMP DP  RH WIND       PRES   REMARKS
PATUXENT RIVER MOSUNNY   37  18  46 W15       29.80F WCI  28
ST INIGOES     SUNNY     36  21  54 W10G20    29.80F WCI  28
LEONARDTOWN*   MOSUNNY   36  19  51 W13G18    29.81F WCI  27

$$

MDZ003>005-101800-
NORTH CENTRAL MARYLAND

CITY           SKY/WX    TMP DP  RH WIND       PRES   REMARKS
FREDERICK*     PTSUNNY   32  21  64 NW15      29.83S WCI  22
HAGERSTOWN APT CLOUDY    29  14  53 W15       29.77F WCI  18
WESTMINSTER*   CLOUDY    30  25  80 W22       29.75S HAZE    WCI  17

$$

MDZ501>502-101800-
WESTERN MARYLAND

CITY           SKY/WX    TMP DP  RH WIND       PRES   REMARKS
OAKLAND*       CLOUDY    12   5  73 W16G23    29.68S HAZE    WCI  -4
CUMBERLAND*    MOSUNNY   28  10  47 W14G25    29.85F WCI  17

$$

VAZ025>031-101800-
SHENANDOAH VALLEY

CITY           SKY/WX    TMP DP  RH WIND       PRES   REMARKS
WINCHESTER*    CLOUDY    32  16  51 W14G21    29.79F WCI  22
FRONT ROYAL*   CLOUDY    32  16  51 W13       29.79F WCI  22
LURAY*         FAIR      32  12  43 W9G17     29.79F WCI  24
NEW MARKET*    FAIR      32  11  42 SW12G17   29.78F WCI  23
STAUNTON*      FAIR      35  12  39 W14       29.80F WCI  26
WAYNESBORO*    PTSUNNY   30  10  43 SW12      29.79F WCI  20

$$

WVZ021-048>050-054>055-101800-
EASTERN WEST VIRGINIA PANHANDLE

CITY           SKY/WX    TMP DP  RH WIND       PRES   REMARKS
MARTINSBURG    PTSUNNY   31  12  45 W18G26    29.80F WCI  19
PETERSBURG*    PTSUNNY   28   8  43 SW15G24   29.83F WCI  17

$$

VAZ036>039-050-101800-
CENTRAL FOOTHILLS

CITY           SKY/WX    TMP DP  RH WIND       PRES   REMARKS
CHARLOTTESVILL FAIR      36  12  37 VRB6      29.80F
CULPEPER*      PTSUNNY   35  15  44 NW10      29.82S WCI  27
ORANGE*        FAIR      36  18  48 SW12      29.83S WCI  27
GORDONSVILLE*  FAIR      36  14  40 SW14G20   29.80F WCI  27
WARRENTON*     FAIR      38  20  49 W5        29.79F

$$

VAZ055>057-101800-
NORTH AND CENTRAL PIEDMONT

CITY           SKY/WX    TMP DP  RH WIND       PRES   REMARKS
FREDERICKSBRG* FAIR      37  19  47 W8        29.81F
STAFFORD*      FAIR      37  18  46 W6        29.85F

$$

NCZ024-NYZ072-PAZ021-071-VAZ022-071-101800-
OTHER REGIONAL OBSERVATIONS

CITY           SKY/WX    TMP DP  RH WIND       PRES   REMARKS
NEW YORK CITY  CLOUDY    37  24  59 W9        29.63F
PHILADELPHIA   PTSUNNY   35  22  58 W20G26    29.73S WCI  24
PITTSBURGH     LGT SNOW  18  10  71 W14G23    29.80S WCI   4
ROANOKE        CLOUDY    29   7  39 NW18G25   29.88F WCI  16
RICHMOND       FAIR      37  14  38 W8        29.83F
RALEIGH        MOSUNNY   36  15  42 VRB6      29.91F

$$

ANZ530>537-101800-
MARINE OBSERVATIONS

STATION/POSITION TIME  TEMP    WIND        PRES
                       AIR SEA DIR/SP/G
                 (UTC) (F)     (DEG/KT/KT) (MB)
THOMAS PT LIGHT  1600   33 38  310/ 17/ 20 1009.6S
BALT KEY BRIDGE  1600   33     280/ 17/ 20 1008.7R
COVE POINT       1600   33     340/ 12/ 19 1010.0S
LEWISETTA        1600   34 41  300/ 12/ 17 1009.8R
SOLOMONS ISLAND  1600   35 41  310/  8/ 13   N/A
PINEY POINT      1600          320/ 15/ 18   N/A

$$





USA.gov is the U.S. government's official web portal to all federal, state and local government web resources and services.